sat.trackr.live / text

‹ back to catalog

STARLINK-3177

NORAD 51138 · 2022-005AL

PAYLOAD ACTIVE UNKNOWN

§ Identity

Operator
Country
US
Launch date
2022-01-19
Launch site
AFETR
Launch vehicle
Mass (kg)
RCS (m²)

Purposes: comms

External: N2YO · Heavens-Above · Gunter

§ Orbital elements

Epoch: 2026-09-20T04:09:32.406336Z

Period
95.26 min
Inclination
53.1717°
Eccentricity
0.0003080
Mean motion
15.11575238 rev/d
Perigee alt
529.3 km
Apogee alt
533.5 km
Semi-major
6,909.5 km
B*
1.6479e-4
RAAN
144.5011°
Arg perigee
87.9820°
Mean anomaly
272.1526°
Rev number
25,810

§ Raw data

STARLINK-31771 51138U 22005AL  26263.17329174  .00002533  00000+0  16479-3 0  99922 51138  53.1717 144.5011 0003080  87.9820 272.1526 15.11575238258104

JSON: /api/v1/satellites/51138 · /tle

For live sub-satellite position, see the globe view (requires WebGL).

§ Visibility from observer

Set your observer location to see the next 7 days of passes ≥ 10°. The values pass through the URL so the page stays shareable.

No JS? Fill the form by hand. The geolocation button needs JavaScript.